Location: Unspecified
(48.8656°N, 0.0000°E)
Time: 13:58:01
(UTC+00:00)

Altair - Pass Details

Date: 20 June 2019
Orbit: 1501 x 1683 km, 47.2° (Epoch: 17 July)

Event Time Altitude Azimuth Distance (km) Brightness Sun altitude
Rises 21:19:11 0° 243° (WSW) 4,729 10.2 -9.1°
Reaches altitude 10° 21:22:13 10° 242° (WSW) 3,769 9.7 -9.4°
Maximum altitude 21:31:45 71° 161° (SSE) 1,702 7.6 -10.3°
Drops below altitude 10° 21:41:41 10° 80° (E) 3,913 9.4 -11.2°
Sets 21:44:53 0° 79° (E) 4,917 9.9 -11.5°
